Lid_Strength_Index
3 4 4 4 4 5 7 7 9 6 6 8 9 12 12 10 11 10 10 10 11 11 11 12 12 12 11 9 9 11 10 10 13 13 11 10 11 12 11 13 14 14 13 15
3 4 4 4 4 5 7 8 8 6 6 9 11 12 13 12 11 11 11 11 11 10 11 12 11 11 10 9 10 11 10 12 14 14 13 12 13 12 12 13 12 14 15 15
4 4 4 4 4 6 7 9 9 8 8 9 10 12 12 13 12 12 11 11 11 11 12 11 12 11 10 9 9 10 10 12 14 14 14 11 13 13 12 13 14 13 14 13
4 4 5 4 4 6 7 9 10 11 11 11 11 11 12 13 14 12 12 12 11 12 13 12 13 12 11 10 10 9 10 13 13 13 13 13 13 13 13 15 13 14 12 12
4 4 5 5 5 6 7 9 10 10 11 12 12 13 13 13 13 12 13 14 13 12 13 12 13 11 12 12 11 11 10 13 13 14 13 13 14 13 13 12 13 13 12 13
4 4 5 5 5 6 7 8 9 10 12 12 13 12 12 13 12 12 12 12 12 13 12 11 10 9 10 10 11 11 12 13 14 15 14 14 16 14 13 12 11 12 14 11
4 5 5 5 5 7 7 8 9 10 11 12 12 13 12 13 12 13 11 11 12 11 9 10 10 11 11 10 10 10 12 13 13 15 15 19 14 12 12 12 12 11 11 11
4 4 5 6 5 7 7 8 9 10 12 11 13 13 12 12 12 12 12 11 11 9 11 13 15 15 15 14 13 12 11 12 14 16 16 14 14 14 14 14 13 11 11 10
3 4 5 6 6 7 7 8 8 9 12 12 12 13 12 12 13 13 12 11 10 10 12 14 17 17 16 17 16 13 13 13 15 17 19 20 16 13 12 12 16 11 11 11
3 4 4 5 6 7 7 7 8 9 11 11 12 12 12 11 12 13 12 12 12 11 13 15 16 16 15 17 17 16 15 15 16 16 18 15 13 12 12 17 15 12 12 11
4 3 3 4 5 5 7 7 7 9 11 10 11 11 12 12 12 13 12 13 13 13 14 15 15 16 15 16 15 15 15 16 16 15 17 19 11 12 14 12 11 11 10 10
4 4 3 3 5 5 6 8 7 8 10 10 10 9 10 11 11 11 11 12 12 11 13 13 13 16 15 15 17 14 16 13 14 14 14 11 10 11 10 10 10 10 10 10
4 4 4 3 4 5 6 8 8 9 11 11 11 11 10 10 10 10 11 11 11 11 11 12 13 15 14 16 16 14 14 12 14 14 12 11 10 10 10 10 10 9 9 10
4 3 3 2 3 4 5 8 7 8 11 13 12 11 12 10 10 11 10 11 11 11 11 12 13 15 12 14 14 14 13 13 14 13 12 11 11 10 9 10 10 10 10 10
4 2 2 2 2 3 5 7 7 7 9 12 12 11 10 11 11 11 11 10 11 11 12 13 14 12 14 13 15 15 13 13 14 14 11 11 11 10 10 10 11 10 11 11
4 3 2 2 2 3 7 10 7 6 7 11 14 11 12 11 11 11 11 10 11 10 11 12 11 11 12 14 16 12 11 11 11 11 11 11 11 11 10 10 11 11 11 11
4 2 2 2 2 6 8 9 6 5 5 11 12 12 12 11 11 12 12 11 11 11 11 12 12 12 12 13 15 11 11 10 11 10 11 12 11 11 10 10 11 10 11 11
5 2 2 2 4 6 8 6 5 5 8 10 13 13 14 11 13 13 11 12 12 12 12 12 13 12 12 15 12 10 10 10 11 11 10 11 10 10 11 11 11 11 11 11
5 5 4 6 8 10 9 5 5 6 9 12 12 14 14 12 12 12 12 11 14 12 13 13 12 13 15 13 11 11 11 11 11 11 11 10 11 11 11 11 11 11 11 11
4 5 7 9 8 4 5 8 11 11 11 12 13 12 15 12 13 13 13 12 13 15 13 12 14 14 11 10 10 9 9 9 10 11 12 11 11 11 10 10 9 10 10 10
4 7 7 5 3 6 8 10 11 11 12 11 12 12 14 12 13 13 11 13 12 15 14 14 15 15 12 10 9 8 8 8 8 8 8 8 8 8 9 10 9 9 9 9
4 5 5 5 7 8 10 11 10 12 13 12 12 13 11 12 11 12 12 13 13 16 13 15 17 13 12 10 9 8 7 8 8 7 8 8 9 9 9 9 9 9 8 8
4 6 7 8 9 12 13 15 13 13 12 11 11 12 11 11 10 11 12 14 15 13 15 17 15 11 10 9 9 8 7 7 8 9 9 9 9 9 9 9 8 8 8 8
7 9 12 11 13 12 11 11 11 12 11 10 9 10 11 10 11 10 13 12 12 15 17 16 11 9 9 8 8 8 8 9 9 9 9 9 9 8 8 8 8 8 8 8
8 10 13 13 11 11 10 10 10 10 9 9 10 10 9 10 11 11 11 14 15 14 14 10 8 9 9 8 8 8 9 9 9 8 8 8 8 7 7 6 6 7 7 7
9 11 12 11 11 11 10 10 10 8 8 8 8 11 12 12 12 13 14 14 15 11 9 7 8 9 10 7 8 8 8 9 8 7 7 6 6 6 6 6 6 6 7 7
10 10 10 9 10 10 9 9 9 7 9 10 10 14 14 13 14 14 12 12 9 8 7 7 8 7 7 7 6 6 6 6 6 6 5 5 5 5 7 7 6 6 6 6